Home   Weather   Pirmasens   Past weeks

Flag for Germany Past Weather in Pirmasens, Rhineland-Palatinate, Germany — Yesterday and Last 2 Weeks

Now
55 °F

Sunny.


Feels Like: 52 °F
Forecast: 45 / 50 °F
Wind: 10 mph from East

Location: Ramstein

Current Time: Apr 30, 2017 at 11:04:21 am

Latest Report: Apr 30, 2017 at 9:58 am


Visibility: N/A

Pressure: 29.93 "Hg

Humidity: 46%

Dew Point: 34 °F

Location of PirmasensLocation

Past Weather in Pirmasens — Graph

°F

Pirmasens Temperature Yesterday

Maximum temperature yesterday: 59 °F (at 5:58 pm)
Minimum temperature yesterday: 35 °F (at 5:58 am)
Average temperature yesterday: 47 °F

High & Low Weather Summary for the Past Weeks

 TemperatureHumidityPressure
High64 °F (Apr 24, 5:58 pm)100% (Apr 16, 7:58 am)30.63 "Hg (Apr 16, 7:58 am)
Low18 °F (Apr 20, 5:58 am)26% (Apr 24, 5:58 pm)29.72 "Hg (Apr 25, 5:23 am)
Average44 °F67%30.13 "Hg
* Reported Apr 15 9:58 am — Apr 30 9:58 am, Pirmasens, Weather by CustomWeather, © 2017

Note: Actual official high and low records may vary slightly from our data, if they occured in-between our weather recording intervals... More about our weather records

Advertising

Pirmasens Weather History for the Previous 24 Hours

Scroll right to see more
 ConditionsComfort  
Time TempWeatherWind HumidityBarometerVisibility
9:58 am
Sun, Apr 30
55 °FSunny.10 mph46%29.93 "HgN/A
8:58 am49 °FSunny.10 mph61%29.94 "HgN/A
7:58 am39 °FSunny.No wind81%29.96 "HgN/A
6:58 am32 °FSunny.No wind93%29.97 "HgN/A
5:58 am32 °FClear.No wind93%29.96 "HgN/A
4:58 am33 °FClear.No wind90%29.96 "HgN/A
3:58 am34 °FClear.No wind87%29.98 "HgN/A
2:58 am31 °FClear.No wind93%29.98 "HgN/A
1:58 am38 °FClear.No wind76%29.98 "HgN/A
12:58 am39 °FClear.No wind75%29.98 "HgN/A
11:58 pm
Sat, Apr 29
41 °FClear.No wind76%29.99 "HgN/A
10:58 pm43 °FClear.No wind71%30.00 "HgN/A
9:58 pm43 °FClear.No wind68%30.00 "HgN/A
8:58 pm49 °FPassing clouds.3 mph56%29.99 "HgN/A
7:58 pm57 °FPassing clouds.6 mph36%29.98 "HgN/A
6:58 pm59 °FPassing clouds.No wind31%29.98 "HgN/A
5:58 pm59 °FPassing clouds.No wind33%30.00 "HgN/A
4:58 pm59 °FPassing clouds.No wind35%30.01 "HgN/A
3:58 pm57 °FScattered clouds.3 mph37%30.03 "HgN/A
2:58 pm56 °FScattered clouds.5 mph41%30.03 "HgN/A
1:58 pm55 °FScattered clouds.3 mph40%30.04 "HgN/A
12:58 pm52 °FBroken clouds.No wind51%30.06 "HgN/A
11:58 am54 °FPartly sunny.No wind47%30.07 "HgN/A
Weather by CustomWeather, © 2017

See weather overviewHow to use our weather pages